QPF
0.01 0.01 0.01 0.01 0.00 0.00 0.00 0.01 0.01 0.00 0.00 0.00 0.00 0.00 0.00 0.00 0.00 0.00 0.00 0.00 0.00 0.00 0.00 0.00 0.00 0.00 0.01 0.01 0.02 0.02 0.02 0.02 0.01 0.01 0.01 0.01 0.01 0.01 0.01 0.01 0.02 0.02 0.02 0.03
0.01 0.01 0.01 0.01 0.01 0.00 0.00 0.00 0.01 0.00 0.00 0.00 0.00 0.00 0.00 0.00 0.00 0.00 0.00 0.00 0.00 0.00 0.00 0.00 0.01 0.01 0.01 0.01 0.02 0.02 0.03 0.02 0.02 0.02 0.02 0.01 0.01 0.01 0.01 0.01 0.01 0.02 0.02 0.02
0.01 0.00 0.01 0.01 0.01 0.00 0.00 0.00 0.00 0.00 0.00 0.00 0.00 0.00 0.00 0.00 0.00 0.00 0.00 0.00 0.00 0.00 0.00 0.00 0.01 0.01 0.01 0.01 0.02 0.03 0.03 0.02 0.02 0.01 0.01 0.01 0.01 0.01 0.01 0.01 0.01 0.01 0.02 0.02
0.01 0.01 0.01 0.00 0.00 0.01 0.00 0.00 0.00 0.00 0.00 0.00 0.00 0.00 0.00 0.01 0.01 0.00 0.00 0.00 0.00 0.00 0.00 0.00 0.00 0.01 0.01 0.01 0.01 0.02 0.02 0.02 0.02 0.01 0.01 0.01 0.01 0.01 0.01 0.01 0.01 0.01 0.02 0.02
0.02 0.01 0.00 0.00 0.00 0.01 0.01 0.01 0.01 0.01 0.00 0.00 0.00 0.00 0.00 0.00 0.00 0.00 0.00 0.00 0.00 0.00 0.00 0.00 0.00 0.01 0.01 0.01 0.01 0.02 0.02 0.02 0.02 0.02 0.01 0.01 0.00 0.00 0.00 0.00 0.01 0.02 0.02 0.03
0.03 0.02 0.01 0.00 0.00 0.00 0.01 0.01 0.01 0.01 0.00 0.00 0.00 0.00 0.00 0.00 0.00 0.01 0.01 0.00 0.00 0.00 0.00 0.00 0.00 0.01 0.01 0.01 0.01 0.01 0.01 0.02 0.02 0.02 0.01 0.01 0.00 0.00 0.00 0.01 0.01 0.01 0.02 0.02
0.03 0.02 0.01 0.01 0.00 0.00 0.01 0.01 0.00 0.00 0.00 0.00 0.01 0.01 0.01 0.01 0.01 0.01 0.01 0.01 0.00 0.00 0.00 0.00 0.00 0.00 0.00 0.01 0.01 0.01 0.02 0.02 0.02 0.03 0.02 0.01 0.01 0.00 0.01 0.01 0.01 0.01 0.01 0.02
0.02 0.02 0.01 0.01 0.01 0.01 0.01 0.00 0.00 0.00 0.00 0.00 0.01 0.01 0.01 0.01 0.01 0.01 0.01 0.01 0.00 0.00 0.00 0.00 0.00 0.00 0.00 0.01 0.01 0.02 0.02 0.02 0.02 0.02 0.02 0.02 0.01 0.01 0.01 0.01 0.01 0.02 0.02 0.03
0.01 0.01 0.01 0.02 0.01 0.01 0.01 0.01 0.00 0.00 0.00 0.00 0.01 0.01 0.01 0.01 0.01 0.01 0.01 0.01 0.00 0.00 0.00 0.01 0.01 0.01 0.01 0.01 0.01 0.02 0.02 0.02 0.02 0.02 0.03 0.03 0.03 0.02 0.02 0.02 0.02 0.03 0.03 0.04
0.02 0.02 0.01 0.02 0.02 0.01 0.01 0.01 0.01 0.01 0.01 0.01 0.01 0.01 0.01 0.01 0.01 0.01 0.01 0.01 0.01 0.01 0.01 0.01 0.01 0.01 0.01 0.02 0.02 0.02 0.02 0.02 0.03 0.03 0.04 0.04 0.04 0.04 0.05 0.05 0.04 0.04 0.04 0.05
0.02 0.01 0.01 0.02 0.02 0.01 0.01 0.01 0.01 0.01 0.01 0.01 0.01 0.01 0.01 0.01 0.01 0.01 0.01 0.01 0.01 0.01 0.01 0.02 0.01 0.01 0.01 0.02 0.02 0.02 0.02 0.02 0.03 0.03 0.04 0.04 0.04 0.04 0.05 0.06 0.05 0.05 0.05 0.05
0.02 0.01 0.02 0.02 0.01 0.01 0.01 0.01 0.01 0.01 0.01 0.01 0.01 0.01 0.01 0.01 0.01 0.01 0.00 0.00 0.01 0.01 0.01 0.01 0.01 0.01 0.02 0.02 0.02 0.02 0.02 0.02 0.03 0.03 0.04 0.05 0.04 0.04 0.06 0.06 0.06 0.06 0.05 0.04
0.01 0.01 0.02 0.01 0.01 0.01 0.01 0.01 0.01 0.01 0.01 0.01 0.01 0.01 0.00 0.00 0.01 0.00 0.00 0.00 0.01 0.01 0.01 0.01 0.01 0.01 0.02 0.02 0.02 0.02 0.02 0.02 0.03 0.03 0.04 0.05 0.06 0.06 0.06 0.06 0.07 0.08 0.08 0.06
0.01 0.01 0.01 0.01 0.01 0.01 0.01 0.00 0.00 0.01 0.01 0.00 0.00 0.00 0.00 0.00 0.00 0.00 0.00 0.01 0.01 0.00 0.00 0.01 0.01 0.01 0.02 0.02 0.02 0.02 0.02 0.02 0.03 0.03 0.04 0.05 0.07 0.08 0.07 0.07 0.06 0.08 0.10 0.11
0.00 0.01 0.01 0.01 0.01 0.01 0.00 0.00 0.00 0.00 0.00 0.00 0.00 0.00 0.00 0.00 0.00 0.00 0.00 0.00 0.00 0.00 0.00 0.00 0.01 0.01 0.01 0.02 0.03 0.03 0.02 0.02 0.03 0.03 0.04 0.05 0.06 0.08 0.09 0.08 0.08 0.07 0.08 0.09
0.00 0.00 0.01 0.01 0.01 0.00 0.00 0.00 0.00 0.00 0.00 0.00 0.00 0.00 0.00 0.00 0.00 0.00 0.00 0.00 0.00 0.00 0.00 0.00 0.00 0.01 0.01 0.01 0.02 0.03 0.03 0.03 0.03 0.03 0.04 0.05 0.05 0.07 0.08 0.09 0.08 0.08 0.07 0.07
0.00 0.00 0.00 0.00 0.00 0.00 0.00 0.00 0.00 0.00 0.00 0.00 0.00 0.00 0.00 0.00 0.00 0.00 0.00 0.00 0.00 0.00 0.00 0.00 0.00 0.00 0.01 0.01 0.02 0.03 0.04 0.04 0.04 0.04 0.04 0.05 0.05 0.05 0.07 0.08 0.08 0.07 0.08 0.07
0.00 0.00 0.00 0.00 0.00 0.00 0.00 0.00 0.00 0.00 0.00 0.00 0.00 0.00 0.00 0.00 0.00 0.00 0.00 0.00 0.00 0.00 0.00 0.00 0.00 0.01 0.01 0.01 0.01 0.02 0.03 0.04 0.04 0.04 0.04 0.04 0.04 0.05 0.06 0.06 0.07 0.07 0.07 0.06
0.00 0.00 0.00 0.00 0.00 0.00 0.00 0.00 0.00 0.00 0.00 0.00 0.00 0.00 0.00 0.00 0.00 0.00 0.00 0.00 0.00 0.00 0.00 0.00 0.01 0.01 0.01 0.01 0.01 0.02 0.02 0.02 0.02 0.02 0.03 0.03 0.03 0.03 0.04 0.04 0.04 0.05 0.05 0.05
0.00 0.00 0.00 0.00 0.00 0.00 0.00 0.00 0.00 0.00 0.00 0.00 0.00 0.00 0.00 0.00 0.00 0.00 0.00 0.00 0.00 0.00 0.01 0.01 0.01 0.01 0.01 0.01 0.01 0.01 0.02 0.02 0.02 0.02 0.02 0.02 0.02 0.02 0.02 0.03 0.03 0.03 0.03 0.04
0.00 0.00 0.00 0.00 0.00 0.00 0.00 0.00 0.00 0.00 0.00 0.00 0.00 0.00 0.00 0.00 0.00 0.00 0.00 0.00 0.00 0.01 0.01 0.01 0.01 0.01 0.01 0.01 0.01 0.01 0.01 0.01 0.02 0.02 0.02 0.02 0.02 0.02 0.02 0.02 0.02 0.02 0.02 0.02
0.00 0.00 0.00 0.00 0.00 0.00 0.00 0.00 0.00 0.00 0.00 0.00 0.00 0.00 0.00 0.00 0.00 0.00 0.00 0.00 0.01 0.01 0.01 0.01 0.01 0.01 0.01 0.02 0.01 0.01 0.01 0.01 0.01 0.02 0.02 0.02 0.02 0.02 0.02 0.02 0.02 0.02 0.02 0.02
0.00 0.01 0.01 0.00 0.00 0.00 0.00 0.00 0.00 0.00 0.00 0.00 0.00 0.00 0.00 0.00 0.00 0.00 0.00 0.00 0.00 0.01 0.01 0.01 0.01 0.01 0.02 0.02 0.01 0.01 0.01 0.01 0.01 0.01 0.01 0.02 0.02 0.03 0.03 0.03 0.03 0.02 0.02 0.02
0.01 0.01 0.01 0.01 0.00 0.00 0.00 0.00 0.00 0.00 0.00 0.00 0.00 0.00 0.00 0.00 0.00 0.00 0.00 0.00 0.00 0.00 0.01 0.01 0.01 0.01 0.01 0.01 0.01 0.01 0.01 0.01 0.01 0.01 0.01 0.01 0.02 0.02 0.02 0.03 0.03 0.03 0.03 0.03
0.01 0.01 0.01 0.01 0.00 0.00 0.00 0.00 0.00 0.00 0.00 0.00 0.00 0.00 0.00 0.01 0.01 0.01 0.01 0.01 0.01 0.01 0.01 0.01 0.01 0.01 0.01 0.01 0.01 0.01 0.01 0.01 0.01 0.01 0.01 0.01 0.01 0.02 0.02 0.02 0.02 0.03 0.03 0.03
0.01 0.01 0.01 0.01 0.01 0.00 0.00 0.00 0.00 0.00 0.00 0.00 0.00 0.00 0.00 0.01 0.01 0.01 0.01 0.01 0.01 0.01 0.01 0.01 0.02 0.02 0.02 0.01 0.01 0.01 0.01 0.01 0.01 0.01 0.01 0.01 0.01 0.01 0.02 0.02 0.02 0.02 0.03 0.03
0.01 0.01 0.01 0.01 0.00 0.00 0.00 0.00 0.00 0.00 0.01 0.01 0.01 0.01 0.01 0.01 0.01 0.01 0.01 0.01 0.01 0.01 0.01 0.01 0.02 0.02 0.02 0.01 0.01 0.01 0.01 0.01 0.01 0.01 0.01 0.01 0.01 0.02 0.02 0.02 0.02 0.02 0.03 0.03
MSLP
1023.90 1023.79 1023.61 1023.33 1022.93 1022.38 1021.70 1020.88 1019.95 1018.95 1017.94 1016.94 1016.03 1015.24 1014.59 1014.08 1013.71 1013.44 1013.25 1013.09 1012.91 1012.68 1012.37 1011.98 1011.50 1010.95 1010.35 1009.73 1009.12 1008.52 1007.96 1007.44 1006.95 1006.50 1006.07 1005.67 1005.29 1004.93 1004.61 1004.35 1004.17 1004.09 1004.12 1004.28
1023.58 1023.28 1022.88 1022.37 1021.76 1021.05 1020.25 1019.39 1018.48 1017.57 1016.68 1015.85 1015.10 1014.47 1013.96 1013.57 1013.28 1013.09 1012.95 1012.83 1012.69 1012.49 1012.23 1011.87 1011.43 1010.91 1010.33 1009.72 1009.10 1008.49 1007.90 1007.35 1006.83 1006.34 1005.88 1005.43 1004.99 1004.56 1004.16 1003.79 1003.49 1003.27 1003.17 1003.19
1023.29 1022.76 1022.12 1021.36 1020.53 1019.64 1018.73 1017.83 1016.96 1016.14 1015.40 1014.74 1014.19 1013.74 1013.39 1013.13 1012.95 1012.83 1012.73 1012.63 1012.50 1012.31 1012.05 1011.70 1011.27 1010.75 1010.18 1009.56 1008.93 1008.30 1007.70 1007.12 1006.57 1006.04 1005.54 1005.03 1004.53 1004.03 1003.54 1003.08 1002.66 1002.32 1002.10 1002.01
1022.92 1022.19 1021.31 1020.34 1019.31 1018.29 1017.30 1016.38 1015.56 1014.86 1014.27 1013.80 1013.43 1013.16 1012.97 1012.83 1012.73 1012.66 1012.58 1012.48 1012.33 1012.12 1011.84 1011.47 1011.02 1010.49 1009.91 1009.28 1008.64 1007.99 1007.36 1006.76 1006.17 1005.61 1005.05 1004.49 1003.92 1003.34 1002.76 1002.20 1001.68 1001.23 1000.91 1000.72
1022.35 1021.45 1020.40 1019.28 1018.13 1017.03 1016.01 1015.13 1014.39 1013.81 1013.37 1013.06 1012.87 1012.74 1012.68 1012.63 1012.59 1012.54 1012.45 1012.32 1012.13 1011.88 1011.55 1011.14 1010.66 1010.12 1009.52 1008.89 1008.24 1007.58 1006.94 1006.31 1005.69 1005.08 1004.46 1003.83 1003.18 1002.52 1001.84 1001.18 1000.55 1000.01 999.60 999.34
1021.45 1020.44 1019.31 1018.11 1016.94 1015.84 1014.86 1014.05 1013.42 1012.97 1012.67 1012.50 1012.43 1012.42 1012.43 1012.44 1012.42 1012.36 1012.25 1012.07 1011.84 1011.53 1011.16 1010.71 1010.21 1009.66 1009.06 1008.43 1007.78 1007.12 1006.47 1005.81 1005.16 1004.50 1003.82 1003.11 1002.37 1001.60 1000.81 1000.04 999.32 998.69 998.20 997.88
1020.12 1019.08 1017.95 1016.78 1015.67 1014.65 1013.78 1013.09 1012.59 1012.25 1012.07 1012.01 1012.02 1012.07 1012.13 1012.15 1012.13 1012.04 1011.89 1011.68 1011.39 1011.05 1010.64 1010.19 1009.68 1009.13 1008.54 1007.93 1007.30 1006.65 1006.00 1005.32 1004.63 1003.91 1003.16 1002.35 1001.50 1000.62 999.72 998.83 998.01 997.29 996.72 996.35
1018.35 1017.35 1016.30 1015.26 1014.28 1013.42 1012.70 1012.16 1011.78 1011.57 1011.48 1011.48 1011.54 1011.61 1011.67 1011.69 1011.64 1011.53 1011.35 1011.11 1010.80 1010.45 1010.04 1009.59 1009.10 1008.57 1008.02 1007.44 1006.84 1006.21 1005.55 1004.87 1004.13 1003.35 1002.51 1001.60 1000.63 999.61 998.59 997.58 996.65 995.84 995.20 994.79
1016.20 1015.32 1014.42 1013.56 1012.77 1012.11 1011.57 1011.19 1010.94 1010.82 1010.80 1010.84 1010.92 1010.99 1011.03 1011.03 1010.96 1010.84 1010.65 1010.40 1010.11 1009.76 1009.38 1008.96 1008.52 1008.04 1007.53 1006.99 1006.42 1005.81 1005.16 1004.45 1003.67 1002.81 1001.87 1000.85 999.75 998.61 997.45 996.32 995.27 994.37 993.67 993.22
1013.85 1013.11 1012.41 1011.77 1011.21 1010.75 1010.41 1010.18 1010.05 1010.00 1010.02 1010.08 1010.15 1010.20 1010.23 1010.21 1010.15 1010.03 1009.86 1009.64 1009.38 1009.07 1008.74 1008.37 1007.97 1007.55 1007.09 1006.59 1006.05 1005.45 1004.79 1004.05 1003.23 1002.30 1001.26 1000.12 998.90 997.62 996.33 995.08 993.93 992.94 992.18 991.68
1011.47 1010.92 1010.43 1010.02 1009.68 1009.43 1009.26 1009.17 1009.13 1009.14 1009.18 1009.24 1009.29 1009.34 1009.35 1009.34 1009.28 1009.19 1009.06 1008.89 1008.69 1008.44 1008.16 1007.85 1007.50 1007.12 1006.69 1006.22 1005.70 1005.10 1004.43 1003.66 1002.78 1001.78 1000.65 999.41 998.07 996.68 995.27 993.91 992.67 991.61 990.78 990.24
1009.30 1008.93 1008.64 1008.44 1008.31 1008.24 1008.21 1008.22 1008.25 1008.29 1008.35 1008.39 1008.44 1008.47 1008.49 1008.50 1008.48 1008.43 1008.35 1008.24 1008.09 1007.90 1007.67 1007.39 1007.08 1006.72 1006.32 1005.86 1005.33 1004.73 1004.05 1003.24 1002.32 1001.26 1000.06 998.74 997.31 995.82 994.32 992.88 991.56 990.43 989.56 988.98
1007.45 1007.25 1007.16 1007.14 1007.18 1007.24 1007.32 1007.40 1007.47 1007.53 1007.58 1007.62 1007.66 1007.70 1007.73 1007.76 1007.78 1007.78 1007.76 1007.70 1007.59 1007.44 1007.24 1006.98 1006.68 1006.32 1005.91 1005.45 1004.92 1004.31 1003.60 1002.78 1001.83 1000.74 999.50 998.13 996.64 995.10 993.55 992.05 990.68 989.51 988.59 987.97
1006.00 1005.96 1006.02 1006.15 1006.31 1006.47 1006.62 1006.74 1006.83 1006.89 1006.93 1006.96 1007.00 1007.04 1007.10 1007.16 1007.21 1007.26 1007.27 1007.25 1007.16 1007.03 1006.82 1006.56 1006.24 1005.87 1005.45 1004.97 1004.43 1003.81 1003.10 1002.28 1001.33 1000.24 999.00 997.62 996.12 994.57 993.00 991.48 990.09 988.89 987.95 987.30
1004.94 1005.02 1005.20 1005.43 1005.67 1005.90 1006.08 1006.21 1006.30 1006.35 1006.37 1006.40 1006.44 1006.49 1006.56 1006.65 1006.74 1006.81 1006.84 1006.82 1006.74 1006.59 1006.37 1006.08 1005.73 1005.33 1004.89 1004.40 1003.86 1003.25 1002.56 1001.77 1000.85 999.79 998.59 997.24 995.79 994.26 992.71 991.22 989.84 988.64 987.68 987.00
1004.18 1004.36 1004.62 1004.92 1005.20 1005.45 1005.64 1005.76 1005.83 1005.86 1005.88 1005.89 1005.93 1005.99 1006.08 1006.18 1006.28 1006.36 1006.39 1006.37 1006.27 1006.09 1005.83 1005.51 1005.13 1004.71 1004.25 1003.76 1003.24 1002.66 1002.02 1001.28 1000.43 999.44 998.31 997.04 995.66 994.20 992.72 991.27 989.93 988.75 987.80 987.10
1003.59 1003.85 1004.16 1004.49 1004.80 1005.04 1005.21 1005.32 1005.36 1005.37 1005.37 1005.38 1005.41 1005.48 1005.57 1005.68 1005.78 1005.86 1005.88 1005.83 1005.70 1005.49 1005.20 1004.85 1004.45 1004.02 1003.57 1003.10 1002.61 1002.09 1001.52 1000.86 1000.10 999.21 998.18 997.01 995.74 994.38 992.99 991.62 990.34 989.21 988.28 987.57
1003.08 1003.38 1003.73 1004.07 1004.36 1004.59 1004.73 1004.80 1004.82 1004.81 1004.79 1004.80 1004.83 1004.90 1005.00 1005.10 1005.20 1005.27 1005.27 1005.21 1005.05 1004.82 1004.51 1004.15 1003.75 1003.33 1002.90 1002.48 1002.05 1001.60 1001.10 1000.54 999.88 999.10 998.18 997.14 995.98 994.74 993.46 992.19 991.00 989.93 989.03 988.34
1002.55 1002.88 1003.24 1003.57 1003.84 1004.02 1004.13 1004.17 1004.16 1004.13 1004.11 1004.11 1004.14 1004.22 1004.32 1004.43 1004.53 1004.59 1004.59 1004.52 1004.36 1004.12 1003.82 1003.46 1003.09 1002.70 1002.32 1001.96 1001.59 1001.21 1000.80 1000.33 999.77 999.10 998.29 997.37 996.33 995.21 994.05 992.90 991.80 990.81 989.97 989.30
1001.96 1002.31 1002.65 1002.96 1003.19 1003.34 1003.41 1003.41 1003.38 1003.34 1003.31 1003.31 1003.36 1003.45 1003.57 1003.70 1003.81 1003.88 1003.88 1003.82 1003.67 1003.45 1003.18 1002.86 1002.53 1002.19 1001.87 1001.56 1001.27 1000.96 1000.62 1000.23 999.75 999.16 998.46 997.64 996.72 995.72 994.68 993.64 992.66 991.76 990.98 990.35
1001.31 1001.66 1001.99 1002.25 1002.44 1002.54 1002.57 1002.55 1002.50 1002.46 1002.44 1002.46 1002.53 1002.64 1002.79 1002.94 1003.07 1003.16 1003.19 1003.15 1003.04 1002.86 1002.63 1002.37 1002.09 1001.81 1001.55 1001.30 1001.06 1000.81 1000.53 1000.19 999.78 999.26 998.64 997.91 997.08 996.20 995.27 994.35 993.48 992.68 991.98 991.40
1000.64 1000.98 1001.26 1001.48 1001.62 1001.68 1001.68 1001.63 1001.58 1001.54 1001.54 1001.59 1001.69 1001.84 1002.02 1002.20 1002.37 1002.49 1002.56 1002.56 1002.49 1002.37 1002.19 1001.98 1001.76 1001.55 1001.34 1001.14 1000.95 1000.74 1000.49 1000.19 999.82 999.35 998.79 998.13 997.40 996.61 995.80 994.99 994.22 993.52 992.90 992.39
999.99 1000.29 1000.54 1000.70 1000.79 1000.80 1000.77 1000.72 1000.66 1000.64 1000.67 1000.75 1000.89 1001.08 1001.30 1001.52 1001.72 1001.89 1001.99 1002.04 1002.02 1001.94 1001.82 1001.67 1001.50 1001.34 1001.17 1001.02 1000.85 1000.67 1000.45 1000.18 999.84 999.41 998.90 998.31 997.65 996.96 996.24 995.54 994.88 994.27 993.74 993.29
999.41 999.67 999.85 999.96 999.99 999.97 999.91 999.85 999.81 999.81 999.87 999.99 1000.17 1000.40 1000.65 1000.91 1001.14 1001.34 1001.48 1001.55 1001.57 1001.53 1001.46 1001.35 1001.24 1001.11 1000.99 1000.87 1000.74 1000.58 1000.39 1000.14 999.82 999.44 998.98 998.45 997.87 997.26 996.64 996.03 995.46 994.94 994.48 994.09
998.93 999.13 999.25 999.30 999.28 999.22 999.15 999.09 999.06 999.09 999.18 999.34 999.55 999.81 1000.08 1000.35 1000.60 1000.81 1000.97 1001.06 1001.10 1001.10 1001.05 1000.98 1000.91 1000.82 1000.74 1000.65 1000.55 1000.43 1000.26 1000.05 999.78 999.44 999.04 998.58 998.08 997.55 997.02 996.49 996.00 995.55 995.15 994.80
998.60 998.73 998.78 998.77 998.70 998.62 998.53 998.47 998.46 998.50 998.62 998.80 999.03 999.30 999.57 999.85 1000.09 1000.29 1000.44 1000.53 1000.58 1000.58 1000.56 1000.52 1000.48 1000.43 1000.38 1000.34 1000.28 1000.20 1000.09 999.93 999.72 999.44 999.11 998.72 998.30 997.85 997.39 996.93 996.50 996.10 995.74 995.41
998.43 998.49 998.47 998.39 998.29 998.17 998.07 998.01 998.01 998.07 998.19 998.38 998.61 998.86 999.12 999.36 999.58 999.75 999.87 999.95 999.98 999.99 999.97 999.96 999.94 999.93 999.94 999.94 999.94 999.93 999.88 999.79 999.65 999.45 999.19 998.88 998.53 998.14 997.74 997.34 996.95 996.58 996.23 995.91
Thickness
5463 5464 5462 5467 5469 5462 5461 5476 5482 5497 5494 5501 5496 5487 5483 5480 5477 5475 5473 5470 5467 5466 5465 5465 5464 5463 5462 5463 5462 5461 5461 5461 5461 5462 5463 5464 5465 5467 5468 5469 5471 5473 5473 5474
5450 5452 5449 5453 5464 5464 5463 5466 5470 5473 5480 5487 5480 5476 5473 5472 5469 5468 5465 5461 5458 5456 5456 5456 5455 5454 5453 5454 5453 5451 5451 5452 5452 5452 5452 5453 5454 5456 5458 5460 5461 5462 5463 5464
5458 5442 5441 5465 5476 5467 5465 5468 5467 5472 5484 5475 5467 5466 5465 5463 5460 5458 5455 5452 5449 5448 5447 5446 5445 5444 5444 5444 5443 5443 5443 5443 5442 5442 5443 5444 5445 5447 5448 5450 5451 5451 5452 5453
5439 5440 5451 5485 5465 5464 5463 5465 5461 5463 5466 5463 5459 5456 5453 5451 5450 5448 5445 5442 5440 5439 5439 5438 5436 5434 5434 5433 5433 5433 5433 5433 5433 5433 5434 5434 5435 5437 5438 5439 5440 5441 5442 5442
5427 5441 5461 5471 5457 5451 5451 5459 5456 5453 5454 5452 5446 5447 5451 5444 5439 5437 5435 5433 5431 5429 5428 5427 5426 5425 5424 5424 5424 5424 5424 5424 5423 5423 5424 5425 5426 5426 5427 5428 5429 5430 5431 5431
5415 5430 5449 5467 5445 5438 5441 5453 5450 5443 5442 5441 5438 5447 5452 5436 5430 5427 5425 5423 5422 5420 5419 5418 5417 5416 5416 5416 5416 5415 5414 5414 5413 5413 5414 5415 5416 5416 5416 5417 5418 5418 5418 5419
5410 5422 5445 5443 5427 5426 5438 5450 5436 5432 5431 5429 5431 5434 5430 5423 5420 5417 5415 5414 5412 5411 5409 5409 5407 5407 5407 5407 5406 5405 5404 5404 5404 5405 5405 5405 5406 5406 5406 5407 5407 5407 5407 5408
5404 5410 5433 5422 5415 5425 5433 5425 5421 5420 5418 5418 5417 5415 5413 5412 5410 5408 5406 5405 5403 5402 5401 5400 5398 5398 5398 5397 5396 5395 5395 5395 5395 5396 5396 5396 5396 5397 5396 5396 5396 5396 5396 5396
5412 5425 5420 5410 5412 5411 5409 5410 5410 5409 5407 5405 5404 5403 5402 5401 5400 5398 5397 5396 5394 5392 5392 5391 5389 5388 5389 5388 5386 5386 5386 5387 5387 5387 5387 5387 5387 5386 5385 5384 5384 5384 5384 5386
5393 5405 5403 5399 5398 5398 5398 5398 5398 5396 5395 5394 5394 5394 5392 5391 5390 5388 5387 5386 5384 5383 5382 5382 5381 5379 5379 5379 5378 5378 5378 5379 5379 5379 5379 5378 5376 5375 5374 5373 5373 5373 5374 5375
5388 5396 5394 5395 5392 5391 5390 5388 5387 5387 5385 5385 5384 5384 5383 5382 5380 5379 5377 5376 5374 5373 5373 5372 5372 5371 5371 5370 5369 5370 5370 5370 5371 5370 5370 5369 5367 5366 5364 5364 5362 5363 5365 5366
5397 5396 5391 5394 5389 5384 5382 5381 5380 5379 5378 5377 5375 5375 5374 5372 5371 5369 5368 5367 5365 5364 5363 5363 5362 5362 5362 5361 5361 5361 5362 5362 5362 5362 5360 5359 5359 5358 5357 5355 5355 5355 5355 5356
5386 5383 5382 5381 5379 5376 5375 5374 5372 5371 5370 5369 5367 5366 5364 5363 5361 5360 5359 5358 5356 5355 5354 5354 5353 5353 5353 5352 5352 5353 5353 5353 5353 5353 5352 5351 5351 5350 5350 5350 5348 5348 5348 5348
5373 5371 5371 5372 5371 5368 5366 5364 5363 5362 5361 5360 5359 5357 5355 5354 5353 5352 5351 5350 5348 5346 5346 5345 5345 5345 5344 5344 5344 5345 5345 5345 5345 5344 5343 5343 5342 5341 5341 5341 5341 5341 5340 5340
5364 5362 5363 5363 5361 5358 5356 5354 5354 5354 5353 5351 5350 5348 5347 5345 5344 5343 5342 5341 5339 5338 5338 5337 5337 5337 5336 5336 5336 5337 5337 5337 5337 5336 5335 5334 5333 5332 5332 5331 5331 5331 5332 5332
5355 5352 5351 5351 5351 5349 5347 5346 5345 5346 5344 5343 5342 5340 5339 5337 5336 5335 5333 5332 5331 5331 5330 5329 5329 5329 5328 5328 5328 5329 5329 5329 5328 5328 5327 5326 5325 5324 5324 5323 5323 5323 5323 5323
5344 5345 5344 5343 5342 5340 5338 5337 5337 5336 5334 5333 5332 5331 5330 5328 5327 5327 5325 5324 5323 5322 5321 5321 5321 5321 5320 5320 5321 5322 5321 5321 5320 5319 5318 5317 5317 5317 5316 5315 5314 5314 5314 5314
5340 5339 5338 5336 5334 5332 5330 5329 5327 5326 5324 5324 5322 5321 5321 5320 5320 5319 5318 5316 5315 5315 5315 5315 5314 5313 5313 5314 5313 5314 5313 5313 5312 5311 5310 5309 5309 5308 5307 5307 5307 5306 5307 5306
5331 5329 5328 5326 5325 5323 5322 5320 5318 5316 5315 5313 5312 5312 5312 5311 5311 5310 5309 5308 5308 5309 5309 5307 5306 5306 5306 5306 5306 5306 5306 5305 5305 5304 5303 5302 5301 5300 5299 5299 5299 5299 5298 5298
5323 5321 5319 5317 5315 5313 5312 5311 5309 5308 5306 5305 5304 5304 5304 5303 5302 5301 5300 5301 5302 5302 5301 5300 5299 5300 5299 5299 5298 5298 5298 5298 5298 5297 5295 5294 5293 5292 5291 5291 5291 5290 5291 5291
5316 5313 5311 5309 5308 5306 5304 5303 5301 5300 5299 5297 5296 5296 5296 5295 5294 5293 5294 5296 5296 5294 5294 5294 5294 5293 5293 5292 5292 5291 5291 5291 5290 5289 5288 5287 5286 5285 5284 5283 5283 5283 5283 5284
5309 5307 5304 5302 5300 5299 5297 5295 5294 5293 5291 5290 5289 5288 5288 5288 5287 5287 5287 5288 5289 5288 5288 5288 5288 5287 5287 5286 5286 5285 5284 5283 5282 5282 5280 5280 5279 5278 5277 5276 5276 5276 5276 5277
5303 5300 5298 5296 5294 5292 5290 5288 5286 5286 5285 5284 5283 5282 5282 5282 5282 5282 5283 5282 5282 5282 5282 5282 5282 5281 5281 5280 5279 5278 5277 5276 5275 5274 5273 5273 5272 5271 5270 5269 5269 5269 5270 5271
5297 5294 5292 5289 5286 5284 5283 5282 5279 5278 5277 5277 5276 5275 5275 5275 5275 5275 5275 5275 5275 5275 5275 5275 5275 5275 5274 5272 5271 5270 5269 5269 5268 5267 5267 5266 5265 5265 5264 5263 5263 5264 5264 5264
5291 5288 5284 5281 5281 5281 5280 5276 5273 5272 5271 5270 5270 5269 5268 5268 5269 5269 5268 5268 5268 5268 5268 5268 5268 5267 5266 5264 5263 5263 5262 5262 5261 5260 5260 5260 5259 5259 5259 5258 5258 5259 5259 5259
5284 5283 5281 5279 5278 5276 5273 5271 5270 5269 5267 5265 5264 5263 5262 5261 5261 5261 5261 5261 5260 5261 5260 5260 5259 5259 5258 5257 5256 5256 5256 5255 5255 5254 5254 5254 5254 5254 5253 5253 5254 5254 5254 5255
5278 5276 5273 5272 5271 5269 5267 5266 5265 5264 5262 5261 5259 5257 5256 5255 5255 5255 5254 5254 5254 5254 5253 5253 5252 5252 5251 5251 5250 5250 5250 5250 5249 5249 5249 5249 5248 5248 5248 5248 5249 5249 5250 5250